User: anonymous   Login
Location: Unspecified
(0.0000°N, 0.0000°E)
Time: 22:52:58
(UTC+00:00)
Language:

Picosat 4 - Orbit

View from above orbital plane
View from above orbital plane
View from above satellite
View from above satellite

Ground track
Ground track

The orbit data is extracted from the following two-line orbital elements,

1 26092U 00004K   17113.74718423 +.00000237 +00000-0 +87926-4 0  9990
2 26092 100.2049 151.6114 0033347 334.5565 025.3977 14.43257257903866
Epoch (UTC): 23 April 2017 17:55:56
Eccentricity: 0.0033347
inclination: 100.2049°
perigee height: 724 km
apogee height: 771 km
right ascension of ascending node: 151.6114°
argument of perigee: 334.5565°
revolutions per day: 14.43257257
mean anomaly at epoch: 25.3977°
orbit number at epoch: 90386

The dashed part of the orbit path shows where the satellite is in the earth's shadow,  

DLR